VDPPVDSR

Guest
Details From VDPP - Phnom Penh Intl
To VDSR - Siem Reap
Flight Number -
Tags generated
Created
Modified
Stats Distance 128 nm / 237 km
Max Altitude 6,000 ft / 1,829 m
Waypoints 4
Social Downloads 10
Likes 0
Share

Download

Looking for another format? Having issues loading an existing format? Contact us
Advertisement - Login to hide

Notes

Basic altitude profile: - Ascent Rate: 2500ft/min - Ascent Speed: 250kts - Cruise Altitude: 35000ft - Cruise Speed: 420kts - Descent Rate: 1500ft/min - Descent Speed: 250kts Options: - Use NATs: yes - Use PACOTS: yes - Use low airways: yes - Use high airways: yes

Route

VDPP PNH W1 SRE VDSR

ID Type Via Altitude (ft/m) Position (lat/lon) Dist (leg/tot) Name
O VDPP APT - 0 / 0 11.54654 / 104.84414 - / 0 nm Phnom Penh Intl
PNH VOR - 0 / 0 11.54667 / 104.84167 0 / 0 nm PHNOM PENH VOR-DME
SRE VOR W1 (AWY-LO) 6,000 / 1,829 13.41500 / 103.82167 127 / 127 nm SIEM REAP VOR-DME
O VDSR APT - 0 / 0 13.41067 / 103.81283 0 / 127 nm Siem Reap

Altitude Profile

Advertisement - Login to hide

VDPP

Details ICAO VDPP (PNH)
Name Phnom Penh Intl
Region Cambodia
Timezone Asia/Phnom_Penh (UTC+7.0)
Stats Elevation 40 ft / 12 m (AMSL)
Location 11.546500° 104.844000°
Runways 1
Magnetic Variation 0.554° W

METAR

VDPP 310930Z 25009KT 210V290 9999 SCT015 FEW017CB SCT040 34/23 Q1004 CB

Decode

TAF

TAF VDPP 310500Z 3106/3124 24012KT 9999 SCT017 SCT040 TEMPO 3106/3111 SCT015 FEW017CB BKN040

Decode

Departure Runways

ID Width Length Bearing (true/mag) Surface Threshold Overrun Markings Lighting
05 148 ft / 45 m 9,864 ft / 3,007 m 45.56° / 46.11° ASPHALT 0 ft / 0 m 650 ft / 198 m PREC-APP CENTERLINE EDGE THRESHOLD ALSF-I REIL-OMNI
23 148 ft / 45 m 9,864 ft / 3,007 m 225.56° / 226.11° ASPHALT 492 ft / 150 m 653 ft / 199 m PREC-APP CENTERLINE EDGE THRESHOLD ALSF-I REIL-OMNI

VDSR

Details ICAO VDSR (REP)
Name Siem Reap Intl
Region Cambodia
Timezone Asia/Phnom_Penh (UTC+7.0)
Stats Elevation 59 ft / 18 m (AMSL)
Location 13.410900° 103.812000°
Runways 1
Magnetic Variation 0.659° W

METAR

VDSR 310930Z 21008KT 180V240 9999 SCT015 SCT040 31/25 Q1003

Decode

TAF

TAF VDSR 310500Z 3106/3124 23012KT 9999 SCT017 SCT040 TEMPO 3106/3111 SCT015 FEW017CB BKN040

Decode

Destination Runways

ID Width Length Bearing (true/mag) Surface Threshold Overrun Markings Lighting
05 148 ft / 45 m 8,374 ft / 2,552 m 48.27° / 48.92° ASPHALT 0 ft / 0 m 0 ft / 0 m PREC-APP CENTERLINE EDGE THRESHOLD SALS
23 148 ft / 45 m 8,374 ft / 2,552 m 228.27° / 228.93° ASPHALT 0 ft / 0 m 0 ft / 0 m PREC-APP CENTERLINE EDGE THRESHOLD SALS

Approach Navaids

Runway Type Ident Frequency Range Bearing (true/mag) Slope Elevation
05 GS IREP 108.30 MHz 10 nm / 19 km 48.27° / 48.93 ° 3.00° 59 ft / 18 m (AMSL)
05 LOC-ILS IREP 108.30 MHz 18 nm / 33 km 48.27° / 48.93 ° - 59 ft / 18 m (AMSL)

Popular Alternatives